カタログに戻る

COSMOS 970 DEB

運用中LEO
NORAD 64999·DEBRIS·🇷🇺 Russia

打ち上げ Dec 21, 1977 から Baikonur Cosmodrome

Loading…

次のパス (今後24時間)

TLE

経年Source: Space-Track

元期: Sep 10, 2026, 03:16 UTC

1 64999U 77121DL  26253.13621737  .00000003  00000-0  14556-3 0  9990
2 64999  65.7334  70.0509 0014460 150.3904 317.4188 13.37486814625016

AllMySatでCOSMOS 970 DEBをリアルタイム追跡

Download on the App Store